{"data":{"norad_id":67014,"intl_designator":"2025-293M","name":"STARLINK-36207","alt_names":[],"object_type":"PAYLOAD","status":"ACTIVE","operator":null,"country":"US","launch_date":"2025-12-10","launch_site_code":"AFWTR","launch_vehicle":null,"mission":null,"orbit_class":"UNKNOWN","rcs_meters":null,"size_class":null,"mass_kg":null,"dimensions":null,"purposes":["comms"],"wikipedia_slug":null,"has_3d_model":false,"image_url":null,"decayed_at":null,"tle_current":{"epoch":"2026-09-20T13:06:52.737408Z","epoch_age_seconds":77424,"freshness":"FRESH","line1":"1 67014U 25293M   26263.54644372  .00002151  00000+0  18801-3 0  9992","line2":"2 67014  70.0014 323.2265 0003905 269.7712  90.3000 14.98337086 44072","mean_motion":14.98337086,"eccentricity":0.0003905,"inclination_deg":70.0014,"raan_deg":323.2265,"arg_perigee_deg":269.7712,"mean_anomaly_deg":90.3,"bstar":0.00018801,"rev_number":4407,"period_min":96.106544612352,"perigee_km":569.31993639333,"apogee_km":574.74801992727,"semimajor_km":6950.1709781603,"source":"CELESTRAK","updated_at":"2026-09-21T09:00:36.070583Z"}}}